Weather Roundup
Issued by NWS Chicago, IL

Home | Current Version | Previous Version | Graphics & Text | Print | Product List | Glossary On
Versions: 1 2 3 4 5 6 7 8 9 10 11 12 13 14 15 16 17 18 19 20 21 22 23 24 25 26 27 28 29 30 31 32 33 34 35 36 37 38 39 40 41 42 43 44 45 46 47 48 49 50
000
NZUS59 KLOT 251407
HRRLOT

CHICAGO AREA WEATHER ROUNDUP
NATIONAL WEATHER SERVICE CHICAGO/ROMEOVILLE IL
900 AM CDT SAT MAR 25 2017

NOTE: "FAIR" INDICATES FEW OR NO CLOUDS BELOW 12,000 FEET WITH NO
SIGNIFICANT WEATHER AND/OR OBSTRUCTIONS TO VISIBILITY.

* THESE STATIONS ARE NOT UNDER NWS QUALITY CONTROL. THEY ALSO MAY NOT
  REPORT WEATHER SUCH AS PRECIPITATION OR FOG.

ILZ005-006-012>014-019>023-251500-
NORTHEAST ILLINOIS

CITY           SKY/WX    TMP DP  RH WIND       PRES   REMARKS
OHARE          LGT RAIN  42  39  89 NE13      30.06R FOG
MIDWAY         LGT RAIN  42  41  96 NE10G21   30.05R FOG
AURORA         LGT RAIN  43  40  89 NE20G28   30.01S FOG
LANSING*       LGT RAIN  41  41 100 N5        30.03F
JOLIET*        LGT RAIN  44  43  97 NE14      29.99F
WAUKEGAN       CLOUDY    39  38  96 NE20G25   30.07R
DUPAGE AIRPORT LGT RAIN  41  41 100 NE14      30.04R FOG
WHEELING       CLOUDY    40  40 100 NE14G24   30.07F
KANKAKEE*      LGT RAIN  46  46  98 NE10      29.97F
MORRIS*        RAIN      43  42  96 NE8       29.97F
LEWIS AIRPORT* LGT RAIN  42  42 100 NE20      29.99F
NORTHERLY ISL    N/A     39  38  96 N12         N/A
$$

WIZ051-052-058>065-066-070>072-251500-
SOUTHEAST WISCONSIN

CITY           SKY/WX    TMP DP  RH WIND       PRES   REMARKS
MILWAUKEE      DRIZZLE   38  36  92 NE17G24   30.13F
KENOSHA*       RAIN      39  37  92 NE20G28   30.10S FOG
RACINE*        CLOUDY    38  36  92 NE15      30.14S
WAUKESHA       CLOUDY    36  34  93 NE13G23   30.14R FOG
WEST BEND      CLOUDY    36  36 100 NE16G22   30.17R
$$

INZ001>003-010>013-019-020-251500-
NORTHWEST INDIANA

CITY           SKY/WX    TMP DP  RH WIND       PRES   REMARKS
GARY*          LGT RAIN  41  41 100 N6        30.04F FOG
MICHIGAN CITY* NOT AVBL
RENSSELAER*    NOT AVBL
VALPARAISO     CLOUDY    50  50 100 E8        30.03F FOG
$$

LMZ740>746-251500-
SOUTHERN LAKE MICHIGAN

STATION/POSITION TIME  SKY/WX   TEMP WIND        PRES    VSBY
                                AIR  DIR/SP/G
                 (UTC)          (F)  (DEG/KT/KT) (MB)    (MI)
HARRISON CRIB    1340                 20/ 13/ 15   N/A
BURNHAM HARBOR   1400                360/ 11/ 16   N/A
CALUMET HARBOR   1348                360/  9/ 12 1016.8R
BURNS HARBOR     1340            40   50/  7/  8 1017.6F
MICHIGAN CITY    1340            39   40/  6/  6   N/A
$$

ABBREVIATIONS USED IN REMARKS
   TC - TEMPERATURE IN CELSIUS
  WCI - WIND CHILL INDEX
   HX - HEAT INDEX
  VSB - VISIBILITY
$$



USA.gov is the U.S. government's official web portal to all federal, state and local government web resources and services.